Find Starlink 30755

NORAD ID: 58186 Int'l Des: 2023-167 Owner: SPXS Country: US Constellation: starlink operational
LEOCIRCULAR

实时位置

正在加载3D地球...

关于 Starlink 30755

正在加载描述...

即将过境

Passes for default location (London). Set your location on the main map for personalized predictions.

高度历史

Loading altitude history...

两行轨道根数

1 58186U 23167M 26124.56628372 .00001247 00000-0 54886-4 0 9990
2 58186 43.0120 187.5812 0004379 255.6243 104.4122 15.27582155139538
Epoch: May 4, 2026 • Age: 17 hours

当前状态

高度 484.1 km
速度 7.63 km/s
星下点 18.51°N, 123.36°W
发射日期 Oct 30, 2023
运行时间 2.5 years
类型 internet

技术详情

分类 Payload
质量 730.00 kg
干质量 700.00 kg
总质量 730.00 kg
长度 0.30 m
直径 4.10 m
跨度 29.00 m
形状 Box + pan
制造商 SPXS
平台类型 Starlink V2M
阶段状态 In Orbit
所有者/国家 SPXS/US

Most Searched